TimeCDT,TemperatureF,Dew PointF,Humidity,Sea Level PressureIn,VisibilityMPH,Wind Direction,Wind SpeedMPH,Gust SpeedMPH,PrecipitationIn,Events,Conditions,WindDirDegrees,DateUTC
12:52 AM,60.1,55.0,83,29.89,10.0,North,5.8,-,N/A,,Overcast,10,2012-10-03 05:52:00
1:52 AM,59.0,55.0,87,29.89,10.0,NNE,4.6,-,N/A,,Overcast,20,2012-10-03 06:52:00
2:52 AM,60.1,55.0,83,29.88,10.0,North,5.8,-,N/A,,Overcast,360,2012-10-03 07:52:00
2:59 AM,60.8,55.4,82,29.89,10.0,North,4.6,-,N/A,,Overcast,350,2012-10-03 07:59:00
3:52 AM,59.0,55.0,87,29.89,10.0,North,5.8,-,N/A,,Overcast,360,2012-10-03 08:52:00
4:11 AM,59.0,55.4,88,29.89,10.0,North,6.9,-,N/A,,Overcast,360,2012-10-03 09:11:00
4:37 AM,57.2,55.4,94,29.89,10.0,North,5.8,-,N/A,,Overcast,10,2012-10-03 09:37:00
4:44 AM,57.2,55.4,94,29.90,10.0,North,4.6,-,N/A,,Overcast,10,2012-10-03 09:44:00
4:52 AM,57.9,55.0,90,29.90,10.0,NNE,4.6,-,N/A,,Mostly Cloudy,20,2012-10-03 09:52:00
5:22 AM,57.2,55.4,94,29.91,9.0,NNE,4.6,-,N/A,,Mostly Cloudy,20,2012-10-03 10:22:00
5:52 AM,57.9,55.9,93,29.91,9.0,North,3.5,-,N/A,,Overcast,360,2012-10-03 10:52:00
6:10 AM,59.0,55.4,88,29.92,10.0,NNE,4.6,-,N/A,,Overcast,20,2012-10-03 11:10:00
6:52 AM,59.0,55.9,90,29.93,6.0,Calm,Calm,-,N/A,,Overcast,0,2012-10-03 11:52:00
7:24 AM,59.0,57.2,94,29.93,4.0,NNW,4.6,-,N/A,,Overcast,340,2012-10-03 12:24:00
7:37 AM,59.0,57.2,94,29.93,4.0,NNW,3.5,-,N/A,,Overcast,330,2012-10-03 12:37:00
7:52 AM,60.1,57.0,90,29.94,5.0,NNW,4.6,-,N/A,,Overcast,340,2012-10-03 12:52:00
8:10 AM,60.8,57.2,88,29.94,5.0,North,3.5,-,N/A,,Overcast,360,2012-10-03 13:10:00
8:39 AM,60.8,57.2,88,29.94,6.0,North,3.5,-,N/A,,Overcast,360,2012-10-03 13:39:00
8:52 AM,60.1,57.0,90,29.94,5.0,North,3.5,-,0.00,Rain,Light Rain,360,2012-10-03 13:52:00
9:52 AM,61.0,57.9,90,29.95,4.0,Calm,Calm,-,0.00,,Overcast,0,2012-10-03 14:52:00
10:08 AM,60.8,57.2,88,29.95,2.0,NNE,4.6,-,0.01,Rain,Light Rain,30,2012-10-03 15:08:00
10:50 AM,60.8,59.0,94,29.95,3.0,Calm,Calm,-,0.02,Rain,Light Rain,0,2012-10-03 15:50:00
10:52 AM,61.0,59.0,93,29.94,3.0,Calm,Calm,-,0.02,Rain,Light Rain,0,2012-10-03 15:52:00
10:57 AM,60.8,59.0,94,29.95,2.5,Calm,Calm,-,0.00,Rain,Light Rain,0,2012-10-03 15:57:00
11:22 AM,60.8,59.0,94,29.95,3.0,Calm,Calm,-,0.01,,Overcast,0,2012-10-03 16:22:00
11:52 AM,61.0,59.0,93,29.96,2.5,Calm,Calm,-,0.01,,Overcast,0,2012-10-03 16:52:00
12:05 PM,60.8,59.0,94,29.95,1.0,Calm,Calm,-,0.01,Rain,Light Rain,0,2012-10-03 17:05:00
12:24 PM,60.8,60.8,100,29.95,1.0,Calm,Calm,-,0.03,Rain,Light Rain,0,2012-10-03 17:24:00
12:47 PM,62.6,60.8,94,29.95,2.0,SW,5.8,-,0.04,Rain,Light Rain,220,2012-10-03 17:47:00
12:48 PM,62.1,60.1,93,29.95,2.0,SW,5.8,-,0.04,Rain,Light Rain,220,2012-10-03 17:48:00
12:52 PM,60.8,60.8,100,29.95,2.5,SSW,4.6,-,0.00,Rain,Light Rain,210,2012-10-03 17:52:00
12:58 PM,62.6,60.8,94,29.94,3.0,SW,5.8,-,0.00,Rain,Light Rain,220,2012-10-03 17:58:00
1:52 PM,62.1,60.1,93,29.93,6.0,West,3.5,-,0.01,,Overcast,280,2012-10-03 18:52:00
1:59 PM,62.6,60.8,94,29.93,8.0,WNW,3.5,-,N/A,,Overcast,290,2012-10-03 18:59:00
2:23 PM,62.6,59.0,88,29.94,6.0,Calm,Calm,-,N/A,,Overcast,0,2012-10-03 19:23:00
2:25 PM,62.6,59.0,88,29.94,6.0,Calm,Calm,-,N/A,,Overcast,0,2012-10-03 19:25:00
2:52 PM,63.0,59.0,87,29.94,8.0,Calm,Calm,-,N/A,,Overcast,0,2012-10-03 19:52:00
3:03 PM,62.6,59.0,88,29.94,10.0,Calm,Calm,-,N/A,,Overcast,0,2012-10-03 20:03:00
3:52 PM,63.0,59.0,87,29.95,9.0,Calm,Calm,-,N/A,,Overcast,0,2012-10-03 20:52:00
4:52 PM,62.1,60.1,93,29.95,5.0,Calm,Calm,-,0.01,Rain,Light Rain,0,2012-10-03 21:52:00
5:52 PM,61.0,59.0,93,29.96,5.0,WSW,5.8,-,0.00,Rain,Light Rain,240,2012-10-03 22:52:00
6:52 PM,61.0,60.1,97,29.98,5.0,Calm,Calm,-,0.00,,Overcast,0,2012-10-03 23:52:00
7:52 PM,61.0,60.1,97,29.99,5.0,Calm,Calm,-,N/A,,Overcast,0,2012-10-04 00:52:00
8:24 PM,60.8,60.8,100,30.00,2.0,Calm,Calm,-,N/A,,Mostly Cloudy,0,2012-10-04 01:24:00
8:50 PM,60.8,59.0,94,30.00,4.0,Calm,Calm,-,N/A,,Overcast,0,2012-10-04 01:50:00
8:52 PM,60.1,59.0,96,30.00,4.0,South,3.5,-,N/A,,Overcast,170,2012-10-04 01:52:00
10:52 PM,60.1,55.0,83,30.01,10.0,SSW,12.7,-,N/A,,Overcast,210,2012-10-04 03:52:00
11:52 PM,57.9,55.9,93,30.03,9.0,SSW,8.1,-,N/A,,Scattered Clouds,210,2012-10-04 04:52:00